Regional Weather Roundup
Issued by NWS Albany, NY

Home | Current Version | Previous Version | Text Only | Print | Product List | Glossary On
Versions: 1 2 3 4 5 6 7 8 9 10 11 12 13 14 15 16 17 18 19 20 21 22 23 24 25 26 27 28 29 30 31 32 33 34 35
000
ASUS41 KALY 231710
RWRALY

NEW YORK STATE HOURLY WEATHER ROUNDUP
NATIONAL WEATHER SERVICE ALBANY NY
100 PM EDT THU OCT 23 2014

NOTE: "FAIR" INDICATES FEW OR NO CLOUDS BELOW 12,000 FEET WITH NO
SIGNIFICANT WEATHER AND/OR NO OBSTRUCTIONS TO VISIBILITY.

NYZ032-033-038>043-046>054-057>066-NYZ062>081-231800-
EAST


CITY           SKY/WX    TMP DP  RH WIND       PRES   REMARKS
ALBANY         LGT RAIN  47  44  90 N8        29.82F FOG
GLENS FALLS    RAIN      46  43  89 N17       29.84F FOG
POUGHKEEPSIE   LGT RAIN  49  45  86 N12G26    29.76S FOG
MONTGOMERY     LGT RAIN  51  48  89 NE7       29.74F
WHITE PLAINS   CLOUDY    49  44  83 N21G29    29.69F
ISLIP          LGT RAIN  53  49  86 N15       29.62F
NEW YORK CITY  LGT RAIN  51  47  86 N18G28    29.70F
CENTRAL PARK   LGT RAIN  50  47  89 NE8       29.73F FOG
$$

NYZ005>009-017-018-044>046-055-056-231800-
CENTRAL


CITY           SKY/WX    TMP DP  RH WIND       PRES   REMARKS
FULTON         PTSUNNY   53  40  61 N15G23    29.98F
SYRACUSE       CLOUDY    53  41  63 NW14      29.95F
ROME           CLOUDY    49  41  74 N9        29.93F
ELMIRA         CLOUDY    53  44  71 N17G26    29.94F
BINGHAMTON     CLOUDY    47  40  76 N18G29    29.88F
MONTICELLO     CLOUDY    46  45  93 N15G21    29.78F
$$

NYZ026>034-041>043-231800-
NORTH


CITY           SKY/WX    TMP DP  RH WIND       PRES   REMARKS
WATERTOWN      PTSUNNY   55  38  52 N16G24    29.98F
FORT DRUM      NOT AVBL
MASSENA        CLOUDY    51  40  65 NE15      30.03F
SARANAC LAKE   LGT RAIN  40  38  93 N6        29.94F FOG
PLATTSBURGH    LGT RAIN  44  42  93 N17       29.97F
$$

NYZ001>004-010>016-019>021-231800-
WEST


CITY           SKY/WX    TMP DP  RH WIND       PRES   REMARKS
NIAGARA FALLS  SUNNY     55  40  56 NW14      30.10F
BUFFALO        MOSUNNY   57  39  51 N12       30.08F
DUNKIRK        SUNNY     54  41  61 NW9       30.12F
JAMESTOWN      SUNNY     52  37  58 N15       30.09F
WELLSVILLE     PTSUNNY   52  39  61 N21G28    30.01F
ROCHESTER      PTSUNNY   56  40  55 N17G23    30.04F
PENN YAN       CLOUDY    52  42  69 NW15G24   29.98F
$$

             KEY
       WCI = WIND CHILL INDEX
       VSB = VISIBILITY
       HX  = HEAT INDEX
$$



USA.gov is the U.S. government's official web portal to all federal, state and local government web resources and services.